SCOUT X-4 DEB, 2011

Orbit data source: Space-Track

SCOUT X-4 DEB, 2011 is space debris in LEO originally from a launch on Thu, 29 Apr 1965 UTC launched from the Wallops Island (WLPIS). Debris objects in space refer to the collection of defunct objects orbiting the Earth. Examples of debris include non-operational satellites, rocket bodies, and fragments generated from explosions, collisions, or faulty payload assembly.

Loading next visibility...
Identifier
2011, 1965-032D
Orbit
LEO
Country
Flag of USUS
Related business
Manufacturer
Unknown
Mission
Spacecraft
Bus & Motor
Unknown
Mass
Unknown
Launch date (UTC)
1965-04-29 (61 years ago)
Launch vehicle
Unknown
Launch site
Wallops Island (WLPIS)
Object type
Payload
Rocket body
Debris
Shape & HBR
Unknown shape, 0.1 m
Radar Cross Section
Small (<0.1 m²)

Expand to show TLE details & history
Last TLE update: 1 week ago

TLE from 1 week ago
0 SCOUT X-4 DEB
1 02011U 65032D   26151.51156856  .00000511  00000-0  91704-3 0  9993
2 02011  41.1970 193.1086 0224168 211.1740 294.9687 13.40968394975086
Epoch: 2026-05-31T12:16Z
TLE epoch observation values (Epoch: 2026-05-31T12:16:39.523Z)
Latitude
22.9769°
Longitude
-88.8763°
Altitude
1,037.503 km
Speed
7.37 km/s
True Right ascension
22h 57m 12s
True Declination
22° 51' 30"
Sunlit
Object was in daylight at epoch
Visualization orbit readout
Latitude
Unknown
Longitude
Unknown
Altitude
Unknown
Speed
Unknown
Apparent Right ascension
Unknown
Apparent Declination
Unknown
Sunlit
N/A
Visualization observer readout
Local Sidereal Time
04:19:35
Azimuth
Unknown
Elevation
Unknown
Doppler factor
Unknown
Orbital elements
Apogee altitude
1,275.545 km
Perigee altitude
939.927 km
Semi-major axis
7,485.873 km
Eccentricity
0.02242
Inclination
41.197°
RAAN
193.1086°
Arg. of periapsis
211.174°
True anomaly
292.61281°
Mean anomaly
294.9687°
Eccentric anomaly
293.79348°
Mean motion
3.35104 °/min
Orbital period
107.43 mins
BSTAR
0.00091704
Loading maneuver chart data...
Computing Atmospheric mass density...
Loading historical data...
Loading historical data...
Loading historical data...
Loading historical data...
Loading historical data...
Loading historical data...
Loading historical data...
Other satellites on launch #32 in the year 1965 (1965-04-29 UTC)

Documentation

Showing up to 5 results
|